Showing default

EXPLORER 36 (GEOS 2), 3093

Orbit data source: Space-Track

EXPLORER 36 (GEOS 2), 3093 is a payload satellite owned by GSFC (US) in LEO that was launched on Thu, 11 Jan 1968 UTC via a THOR DELTA E1 launch vehicle from the Air Force Western Test Range (AFWTR). Payload-class satellites include a variety of spacecraft equipped with specific instruments for various scientific and technological missions. These include communications satellites like Starlink; space stations such as the ISS; scientific satellites like the Hubble; Earth observation satellites from companies like Planet Labs, Umbra, and HawkEye 360; GPS; miniature CubeSats for education and research; and military/defense satellites.

Loading next visibility...
Identifier
3093, 1968-002A
Orbit
LEO
Country
Flag of USUS
Related business
Manufacturer
APL
Mission
Civil Geodetic
Bus & Motor
ANNA, Unknown motor
Mass
212 kg wet, 212 kg dry
Launch date (UTC)
1968-01-11 (58 years ago)
Launch vehicle
THOR DELTA E1
Launch site
Air Force Western Test Range (AFWTR)
Object type
Payload
Rocket body
Debris
Shape & HBR
Oct Cyl + 1 Dome + 1 Ant, 4.5 m
Radar Cross Section
2.095 m², Large (>1 m²)

Expand to show TLE details & history
Last TLE update: 8 hours ago

TLE from 8 hours ago
0 EXPLORER 36 (GEOS 2)
1 03093U 68002A   25260.91207669 -.00000029  00000-0  15697-3 0  9999
2 03093 105.7953  38.4834 0319098 187.7692 290.8757 12.83591679702421
Epoch: 2025-09-17T21:53Z
TLE epoch observation values (Epoch: 2025-09-17T21:53:23.425Z)
Latitude
60.64901°
Longitude
-76.91192°
Altitude
1,256.377 km
Speed
7.271 km/s
True Right ascension
16h 34m 04s
True Declination
60° 30' 41"
Sunlit
Object was in daylight at epoch
Visualization orbit readout
Latitude
Unknown
Longitude
Unknown
Altitude
Unknown
Speed
Unknown
Apparent Right ascension
Unknown
Apparent Declination
Unknown
Sunlit
N/A
Visualization observer readout
Local Sidereal Time
23:07:04
Azimuth
Unknown
Elevation
Unknown
Doppler factor
Unknown
Orbital elements
Apogee altitude
1,570.643 km
Perigee altitude
1,079.042 km
Semi-major axis
7,702.979 km
Eccentricity
0.03191
Inclination
105.7953°
RAAN
38.4834°
Arg. of periapsis
187.7692°
True anomaly
287.41202°
Mean anomaly
290.8757°
Eccentric anomaly
289.14856°
Mean motion
3.21037 °/min
Orbital period
112.14 mins
BSTAR
0.00015697
Loading maneuver chart data...
Computing Atmospheric mass density...
Loading historical data...
Loading historical data...
Loading historical data...
Loading historical data...
Loading historical data...
Loading historical data...
Loading historical data...

Documentation

Showing up to 5 results
|